{"data":{"norad_id":27380,"epoch":"2026-05-25T01:48:46.577376Z","epoch_age_seconds":69343,"freshness":"FRESH","line1":"1 27380U 02007A   26145.07553909 -.00000227  00000+0  00000+0 0  9995","line2":"2 27380   6.8651  69.4589 0007352 351.6708 177.2336  1.00270246 51531","mean_motion":1.00270246,"eccentricity":0.0007352,"inclination_deg":6.8651,"raan_deg":69.4589,"arg_perigee_deg":351.6708,"mean_anomaly_deg":177.2336,"bstar":0,"rev_number":5153,"period_min":1436.1189459932,"perigee_km":35756.026576141,"apogee_km":35818.026232411,"semimajor_km":42165.163404276,"source":"CELESTRAK","updated_at":"2026-05-25T13:38:14.322092Z"}}